Location: Newark
(42.9277°N, 71.8621°W)
Time: 18:34:13
(UTC+00:00)

Transit 4A - Pass Details

Date: 16 May 2021
Orbit: 872 x 973 km, 66.8° (Epoch: 15 June)

Event Time Altitude Azimuth Distance (km) Brightness Sun altitude
Rises 04:55:52 0° 336° (NNW) 3,503 11.9 -27.9°
Reaches altitude 10° 04:59:41 10° 0° (N) 2,545 11.2 -27.8°
Maximum altitude 05:02:49 15° 33° (NNE) 2,223 10.6 -27.8°
Drops below altitude 10° 05:05:56 10° 66° (ENE) 2,525 10.5 -27.7°
Sets 05:09:41 0° 90° (E) 3,458 11.0 -27.6°
